When you browse on this site, cookies collect data to enhance your experience and personalize the content and advertising you see.
Visit our Privacy Policy to learn more. By continuing to use the site, you agree to this use of cookies and data.
  • In Romania
  • List of Countries
  • For 7 days
  • Water Temperature
  • Weather Map
  • Weather Widgets
  • user-avatar
    Login

    Hourly Weather Słupsk

    Today, 24 August, Saturday

    Time Temperature Precipitation Wind Pressure Humidity
    00:00 +19°C° 0 mm 1 mps 768 mmHg 69%
    01:00 +19°C° 0 mm 1 mps 767 mmHg 70%
    02:00 +18°C° 0 mm 2 mps 767 mmHg 70%
    03:00 +17°C° 0 mm 2 mps 767 mmHg 70%
    04:00 +17°C° 0 mm 2 mps 768 mmHg 71%
    05:00 +18°C° 0 mm 2 mps 768 mmHg 69%
    06:00 +20°C° 0 mm 1 mps 768 mmHg 67%
    07:00 +21°C° 0 mm 1 mps 768 mmHg 65%
    08:00 +23°C° 0 mm 1 mps 768 mmHg 60%
    09:00 +23°C° 0 mm 0 mps 768 mmHg 54%
    10:00 +25°C° 0 mm 0 mps 768 mmHg 49%
    11:00 +25°C° 0 mm 0 mps 768 mmHg 46%
    12:00 +28°C° 0 mm 1 mps 768 mmHg 43%
    13:00 +29°C° 0 mm 1 mps 768 mmHg 40%
    14:00 +28°C° 0 mm 2 mps 767 mmHg 42%
    15:00 +28°C° 0 mm 3 mps 767 mmHg 45%
    16:00 +27°C° 0 mm 4 mps 767 mmHg 47%
    17:00 +26°C° 0 mm 4 mps 767 mmHg 53%
    18:00 +23°C° 0 mm 4 mps 767 mmHg 59%
    19:00 +21°C° 0 mm 4 mps 767 mmHg 65%
    20:00 +20°C° 0 mm 4 mps 767 mmHg 67%
    21:00 +20°C° 0 mm 3 mps 767 mmHg 69%
    22:00 +19°C° 0 mm 3 mps 767 mmHg 71%
    23:00 +19°C° 0 mm 3 mps 767 mmHg 72%

    Tomorrow, 25 August, Sunday

    Time Temperature Precipitation Wind Pressure Humidity
    00:00 +18°C° 0 mm 3 mps 767 mmHg 73%
    01:00 +18°C° 0 mm 3 mps 767 mmHg 74%
    02:00 +18°C° 0 mm 3 mps 767 mmHg 74%
    03:00 +18°C° 0 mm 2 mps 767 mmHg 75%
    04:00 +18°C° 0 mm 2 mps 767 mmHg 76%
    05:00 +19°C° 0 mm 2 mps 767 mmHg 72%
    06:00 +20°C° 0 mm 3 mps 767 mmHg 68%
    07:00 +21°C° 0 mm 3 mps 767 mmHg 65%
    08:00 +22°C° 0 mm 3 mps 767 mmHg 58%
    09:00 +25°C° 0 mm 3 mps 767 mmHg 51%
    10:00 +27°C° 0 mm 4 mps 767 mmHg 44%
    11:00 +27°C° 0 mm 4 mps 767 mmHg 42%
    12:00 +28°C° 0 mm 4 mps 767 mmHg 41%
    13:00 +29°C° 0 mm 4 mps 766 mmHg 39%
    14:00 +29°C° 0 mm 4 mps 766 mmHg 40%
    15:00 +29°C° 0 mm 4 mps 766 mmHg 40%
    16:00 +29°C° 0 mm 4 mps 766 mmHg 40%
    17:00 +27°C° 0 mm 4 mps 766 mmHg 46%
    18:00 +25°C° 0 mm 4 mps 766 mmHg 52%
    19:00 +22°C° 0 mm 4 mps 766 mmHg 58%
    20:00 +21°C° 0 mm 3 mps 766 mmHg 64%
    21:00 +20°C° 0 mm 3 mps 766 mmHg 69%
    22:00 +19°C° 0 mm 3 mps 766 mmHg 75%
    23:00 +18°C° 0 mm 3 mps 766 mmHg 74%

    Day after tomorrow, 26 August, Monday

    Time Temperature Precipitation Wind Pressure Humidity
    00:00 +18°C° 0 mm 3 mps 766 mmHg 73%
    01:00 +17°C° 0 mm 3 mps 766 mmHg 71%
    02:00 +17°C° 0 mm 3 mps 765 mmHg 72%
    03:00 +17°C° 0 mm 3 mps 765 mmHg 73%
    04:00 +17°C° 0 mm 3 mps 765 mmHg 74%
    05:00 +18°C° 0 mm 3 mps 765 mmHg 72%
    06:00 +19°C° 0 mm 3 mps 765 mmHg 70%
    07:00 +20°C° 0 mm 3 mps 765 mmHg 69%
    08:00 +22°C° 0 mm 3 mps 765 mmHg 63%
    09:00 +25°C° 0 mm 3 mps 765 mmHg 58%
    10:00 +27°C° 0 mm 3 mps 765 mmHg 52%
    11:00 +28°C° 0 mm 3 mps 765 mmHg 50%
    12:00 +29°C° 0 mm 3 mps 765 mmHg 47%
    13:00 +30°C° 0 mm 3 mps 765 mmHg 44%
    14:00 +30°C° 0 mm 3 mps 764 mmHg 44%
    15:00 +30°C° 0 mm 3 mps 764 mmHg 44%
    16:00 +30°C° 0 mm 3 mps 764 mmHg 44%
    17:00 +28°C° 0 mm 3 mps 764 mmHg 51%
    18:00 +26°C° 0 mm 4 mps 764 mmHg 57%
    19:00 +23°C° 0 mm 4 mps 764 mmHg 64%
    20:00 +23°C° 0 mm 4 mps 764 mmHg 67%
    21:00 +22°C° 0 mm 4 mps 764 mmHg 70%
    22:00 +21°C° 0 mm 4 mps 764 mmHg 72%
    23:00 +21°C° 0 mm 3 mps 764 mmHg 74%

    27 August, Tuesday

    Time Temperature Precipitation Wind Pressure Humidity
    00:00 +20°C° 0 mm 3 mps 764 mmHg 76%
    01:00 +20°C° 0 mm 3 mps 764 mmHg 77%
    02:00 +20°C° 0 mm 3 mps 764 mmHg 79%
    03:00 +19°C° 0 mm 3 mps 764 mmHg 80%
    04:00 +19°C° 0 mm 3 mps 764 mmHg 82%
    05:00 +20°C° 0 mm 3 mps 764 mmHg 78%
    06:00 +21°C° 0 mm 3 mps 764 mmHg 75%
    07:00 +22°C° 0 mm 3 mps 764 mmHg 71%
    08:00 +25°C° 0 mm 4 mps 764 mmHg 65%
    09:00 +27°C° 0 mm 4 mps 764 mmHg 59%
    10:00 +29°C° 0 mm 4 mps 764 mmHg 53%
    11:00 +30°C° 0 mm 4 mps 764 mmHg 50%
    12:00 +32°C° 0 mm 4 mps 764 mmHg 47%
    13:00 +33°C° 0 mm 4 mps 764 mmHg 44%
    14:00 +33°C° 0 mm 4 mps 763 mmHg 44%
    15:00 +33°C° 0 mm 4 mps 763 mmHg 44%
    16:00 +33°C° 0 mm 4 mps 763 mmHg 44%
    17:00 +30°C° 0 mm 4 mps 763 mmHg 50%
    18:00 +28°C° 0 mm 4 mps 762 mmHg 56%
    19:00 +26°C° 0 mm 4 mps 762 mmHg 61%
    20:00 +26°C° 0 mm 4 mps 762 mmHg 64%
    21:00 +25°C° 0 mm 4 mps 762 mmHg 66%
    22:00 +23°C° 0 mm 4 mps 763 mmHg 68%
    23:00 +23°C° 0 mm 4 mps 762 mmHg 69%

    28 August, Wednesday

    Time Temperature Precipitation Wind Pressure Humidity
    00:00 +23°C° 0 mm 4 mps 762 mmHg 71%
    01:00 +22°C° 0 mm 4 mps 762 mmHg 72%
    02:00 +22°C° 0 mm 4 mps 762 mmHg 74%
    03:00 +21°C° 0 mm 4 mps 762 mmHg 75%
    04:00 +21°C° 0 mm 3 mps 762 mmHg 76%
    05:00 +22°C° 0 mm 4 mps 762 mmHg 74%
    06:00 +22°C° 0 mm 4 mps 762 mmHg 71%
    07:00 +23°C° 0 mm 4 mps 762 mmHg 68%
    08:00 +26°C° 0 mm 4 mps 762 mmHg 64%
    09:00 +28°C° 0 mm 4 mps 762 mmHg 59%
    10:00 +30°C° 0 mm 4 mps 762 mmHg 54%
    11:00 +32°C° 0 mm 4 mps 761 mmHg 51%
    12:00 +33°C° 0 mm 4 mps 761 mmHg 47%
    13:00 +34°C° 0 mm 4 mps 761 mmHg 44%
    14:00 +34°C° 0 mm 4 mps 760 mmHg 43%
    15:00 +34°C° 0 mm 4 mps 760 mmHg 43%
    16:00 +34°C° 0 mm 4 mps 760 mmHg 43%
    17:00 +32°C° 0 mm 4 mps 759 mmHg 47%
    18:00 +29°C° 0 mm 4 mps 759 mmHg 52%
    19:00 +27°C° 0 mm 4 mps 759 mmHg 57%
    20:00 +27°C° 0.2 mm 4 mps 759 mmHg 60%
    21:00 +26°C° 0.2 mm 5 mps 759 mmHg 63%
    22:00 +25°C° 0.2 mm 5 mps 759 mmHg 66%
    23:00 +25°C° 0.1 mm 5 mps 759 mmHg 66%

    29 August, Thursday

    Time Temperature Precipitation Wind Pressure Humidity
    00:00 +23°C° 0.1 mm 5 mps 759 mmHg 67%
    01:00 +23°C° 0.1 mm 5 mps 759 mmHg 67%
    02:00 +23°C° 0.1 mm 5 mps 758 mmHg 69%
    03:00 +22°C° 0.1 mm 4 mps 758 mmHg 70%
    04:00 +22°C° 0.1 mm 4 mps 758 mmHg 71%
    05:00 +22°C° 0.2 mm 5 mps 758 mmHg 72%
    06:00 +23°C° 0.2 mm 5 mps 758 mmHg 72%
    07:00 +23°C° 0.2 mm 5 mps 758 mmHg 73%
    08:00 +26°C° 0.1 mm 5 mps 758 mmHg 68%
    09:00 +27°C° 0.1 mm 5 mps 758 mmHg 63%
    10:00 +29°C° 0.1 mm 6 mps 758 mmHg 58%
    11:00 +30°C° 0 mm 5 mps 758 mmHg 54%
    12:00 +32°C° 0 mm 5 mps 758 mmHg 49%
    13:00 +34°C° 0 mm 5 mps 758 mmHg 45%
    14:00 +34°C° 0.2 mm 5 mps 757 mmHg 44%
    15:00 +34°C° 0.2 mm 4 mps 757 mmHg 44%
    16:00 +34°C° 0.2 mm 4 mps 757 mmHg 43%
    17:00 +31°C° 1.3 mm 3 mps 757 mmHg 51%
    18:00 +29°C° 1.3 mm 3 mps 757 mmHg 59%
    19:00 +27°C° 1.3 mm 3 mps 757 mmHg 67%
    20:00 +26°C° 1.8 mm 3 mps 757 mmHg 73%
    21:00 +24°C° 1.8 mm 3 mps 758 mmHg 78%
    22:00 +22°C° 1.8 mm 3 mps 758 mmHg 84%
    23:00 +22°C° 0.6 mm 3 mps 758 mmHg 84%
    Show more